TimeAKDT,TemperatureF,Dew PointF,Humidity,Sea Level PressureIn,VisibilityMPH,Wind Direction,Wind SpeedMPH,Gust SpeedMPH,PrecipitationIn,Events,Conditions,WindDirDegrees,DateUTC
12:53 AM,28.9,28.0,96,30.66,3.0,WNW,8.1,-,0.00,Snow,Light Snow,290,2012-10-10 08:53:00
1:02 AM,28.4,28.4,100,30.65,2.5,WNW,9.2,-,0.00,Snow,Light Snow,290,2012-10-10 09:02:00
1:10 AM,28.4,28.4,100,30.65,6.0,West,9.2,-,0.00,Snow,Light Snow,280,2012-10-10 09:10:00
1:53 AM,27.0,27.0,100,30.66,9.0,West,8.1,-,0.00,Snow,Light Snow,280,2012-10-10 09:53:00
2:53 AM,27.0,27.0,100,30.66,10.0,West,6.9,-,0.00,,Overcast,260,2012-10-10 10:53:00
3:53 AM,26.1,25.0,96,30.65,10.0,West,9.2,-,N/A,,Overcast,280,2012-10-10 11:53:00
4:53 AM,24.1,21.9,91,30.65,10.0,West,9.2,-,N/A,,Overcast,280,2012-10-10 12:53:00
5:53 AM,25.0,23.0,92,30.65,10.0,West,8.1,-,N/A,,Mostly Cloudy,270,2012-10-10 13:53:00
6:50 AM,26.6,24.8,93,30.64,10.0,West,6.9,-,N/A,,Overcast,260,2012-10-10 14:50:00
6:53 AM,27.0,24.1,89,30.65,10.0,West,6.9,-,N/A,,Overcast,260,2012-10-10 14:53:00
7:53 AM,27.0,25.0,92,30.64,10.0,West,6.9,-,N/A,,Overcast,260,2012-10-10 15:53:00
8:09 AM,26.6,24.8,93,30.64,10.0,West,8.1,-,N/A,,Overcast,260,2012-10-10 16:09:00
9:49 AM,26.6,26.6,100,30.62,10.0,West,6.9,-,N/A,,Overcast,260,2012-10-10 17:49:00
9:53 AM,27.0,26.1,96,30.63,10.0,West,5.8,-,N/A,,Overcast,260,2012-10-10 17:53:00
10:26 AM,26.6,26.6,100,30.62,10.0,West,8.1,-,N/A,,Overcast,260,2012-10-10 18:26:00
10:53 AM,28.0,26.1,92,30.62,10.0,West,8.1,-,N/A,,Overcast,260,2012-10-10 18:53:00
11:41 AM,28.4,24.8,86,30.62,10.0,WSW,9.2,-,0.00,,Overcast,250,2012-10-10 19:41:00
11:50 AM,28.4,24.8,86,30.62,10.0,WSW,8.1,-,0.00,,Overcast,250,2012-10-10 19:50:00
11:53 AM,28.0,25.0,88,30.62,10.0,WSW,8.1,-,0.00,,Overcast,240,2012-10-10 19:53:00
12:53 PM,27.0,25.0,92,30.61,10.0,WSW,6.9,-,N/A,,Overcast,250,2012-10-10 20:53:00
1:53 PM,28.0,25.0,88,30.61,10.0,West,8.1,-,N/A,,Overcast,260,2012-10-10 21:53:00
2:53 PM,28.0,25.0,88,30.60,10.0,West,6.9,-,N/A,,Overcast,260,2012-10-10 22:53:00
3:53 PM,28.0,25.0,88,30.58,10.0,SW,8.1,-,N/A,,Overcast,230,2012-10-10 23:53:00
4:53 PM,28.0,24.1,85,30.56,10.0,Calm,Calm,-,N/A,,Overcast,0,2012-10-11 00:53:00
5:53 PM,27.0,21.9,81,30.55,10.0,Calm,Calm,-,N/A,,Overcast,0,2012-10-11 01:53:00
6:53 PM,26.1,21.0,81,30.53,10.0,SW,6.9,-,N/A,,Overcast,220,2012-10-11 02:53:00
7:42 PM,26.6,21.2,80,30.51,10.0,SSW,5.8,-,N/A,,Overcast,210,2012-10-11 03:42:00
7:53 PM,26.1,21.0,81,30.51,10.0,SSW,5.8,-,N/A,,Overcast,210,2012-10-11 03:53:00
8:08 PM,24.8,21.2,86,30.50,10.0,SW,5.8,-,N/A,,Overcast,230,2012-10-11 04:08:00
8:51 PM,24.8,21.2,86,30.49,10.0,WSW,5.8,-,N/A,,Overcast,240,2012-10-11 04:51:00
8:53 PM,25.0,21.9,88,30.49,10.0,WSW,4.6,-,N/A,,Overcast,240,2012-10-11 04:53:00
9:53 PM,26.1,19.9,78,30.46,10.0,WSW,6.9,-,N/A,,Overcast,250,2012-10-11 05:53:00
10:53 PM,24.1,19.9,84,30.44,10.0,SSW,5.8,-,N/A,,Overcast,210,2012-10-11 06:53:00
11:53 PM,19.9,19.0,96,30.42,10.0,SSW,8.1,-,N/A,,Mostly Cloudy,200,2012-10-11 07:53:00